Time,TemperatureF,DewpointF,PressureIn,WindDirection,WindDirectionDegrees,WindSpeedMPH,WindSpeedGustMPH,Humidity,HourlyPrecipIn,Conditions,Clouds,dailyrainin,SolarRadiationWatts/m^2,SoftwareType,DateUTC
2013-01-08 00:02:00,26.0,3.0,-100.00,West,264,1.0,5.0,36,-99.99,,,0.00,0.000000,,2013-01-08 07:02:00,
2013-01-08 00:12:00,26.0,3.0,-100.00,West,264,1.0,5.0,36,-99.99,,,0.00,0.000000,,2013-01-08 07:12:00,
2013-01-08 00:22:00,26.0,3.0,-100.00,West,264,1.0,5.0,36,-99.99,,,0.00,0.000000,,2013-01-08 07:22:00,
2013-01-08 00:32:00,26.0,3.0,-100.00,West,264,1.0,5.0,36,-99.99,,,0.00,0.000000,,2013-01-08 07:32:00,
2013-01-08 00:40:00,24.0,4.0,-100.00,NNE,18,0.0,7.0,41,0.00,,,0.00,0.000000,,2013-01-08 07:40:00,
2013-01-08 01:02:00,24.0,4.0,-100.00,NNE,18,0.0,7.0,41,0.00,,,0.00,0.000000,,2013-01-08 08:02:00,
2013-01-08 01:12:00,24.0,4.0,-100.00,NNE,18,0.0,7.0,41,0.00,,,0.00,0.000000,,2013-01-08 08:12:00,
2013-01-08 01:22:00,24.0,4.0,-100.00,NNE,18,0.0,7.0,41,0.00,,,0.00,0.000000,,2013-01-08 08:22:00,
2013-01-08 01:32:00,24.0,4.0,-100.00,NNE,18,0.0,7.0,41,0.00,,,0.00,0.000000,,2013-01-08 08:32:00,
2013-01-08 01:40:00,25.0,0.0,-100.00,North,355,4.0,7.0,33,0.00,,,-99.99,0.000000,,2013-01-08 08:40:00,
2013-01-08 02:02:00,25.0,0.0,-100.00,North,355,4.0,7.0,33,0.00,,,-99.99,0.000000,,2013-01-08 09:02:00,
2013-01-08 02:12:00,25.0,0.0,-100.00,North,355,4.0,7.0,33,0.00,,,-99.99,0.000000,,2013-01-08 09:12:00,
2013-01-08 02:22:00,25.0,0.0,-100.00,North,355,4.0,7.0,33,0.00,,,-99.99,0.000000,,2013-01-08 09:22:00,
2013-01-08 02:32:00,25.0,0.0,-100.00,North,355,4.0,7.0,33,0.00,,,-99.99,0.000000,,2013-01-08 09:32:00,
2013-01-08 03:02:00,27.0,-1.0,-100.00,North,6,6.0,10.0,29,0.00,,,0.00,0.000000,,2013-01-08 10:02:00,
2013-01-08 03:12:00,27.0,-1.0,-100.00,North,6,6.0,10.0,29,0.00,,,0.00,0.000000,,2013-01-08 10:12:00,
2013-01-08 03:22:00,27.0,-1.0,-100.00,North,6,6.0,10.0,29,0.00,,,0.00,0.000000,,2013-01-08 10:22:00,
2013-01-08 03:32:00,27.0,-1.0,-100.00,North,6,6.0,10.0,29,0.00,,,0.00,0.000000,,2013-01-08 10:32:00,
2013-01-08 04:02:00,27.0,-2.0,-100.00,NW,321,10.0,15.0,28,-99.99,,,0.00,0.000000,,2013-01-08 11:02:00,
2013-01-08 04:12:00,27.0,-2.0,-100.00,NW,321,10.0,15.0,28,-99.99,,,0.00,0.000000,,2013-01-08 11:12:00,
2013-01-08 04:22:00,27.0,-2.0,-100.00,NW,321,10.0,15.0,28,-99.99,,,0.00,0.000000,,2013-01-08 11:22:00,
2013-01-08 04:32:00,27.0,-2.0,-100.00,NW,321,10.0,15.0,28,-99.99,,,0.00,0.000000,,2013-01-08 11:32:00,
2013-01-08 04:40:00,25.0,0.0,-100.00,NNW,329,10.0,16.0,33,-99.99,,,0.00,0.000000,,2013-01-08 11:40:00,
2013-01-08 05:02:00,25.0,0.0,-100.00,NNW,329,10.0,16.0,33,-99.99,,,0.00,0.000000,,2013-01-08 12:02:00,
2013-01-08 05:12:00,25.0,0.0,-100.00,NNW,329,10.0,16.0,33,-99.99,,,0.00,0.000000,,2013-01-08 12:12:00,
2013-01-08 05:22:00,25.0,0.0,-100.00,NNW,329,10.0,16.0,33,-99.99,,,0.00,0.000000,,2013-01-08 12:22:00,
2013-01-08 05:32:00,25.0,0.0,-100.00,NNW,329,10.0,16.0,33,-99.99,,,0.00,0.000000,,2013-01-08 12:32:00,
2013-01-08 05:40:00,26.0,-2.0,-100.00,NNW,330,7.0,13.0,29,0.00,,,0.00,0.000000,,2013-01-08 12:40:00,
2013-01-08 06:03:00,26.0,-2.0,-100.00,NNW,330,7.0,13.0,29,0.00,,,0.00,0.000000,,2013-01-08 13:03:00,
2013-01-08 06:12:00,26.0,-2.0,-100.00,NNW,330,7.0,13.0,29,0.00,,,0.00,0.000000,,2013-01-08 13:12:00,
2013-01-08 06:22:00,26.0,-2.0,-100.00,NNW,330,7.0,13.0,29,0.00,,,0.00,0.000000,,2013-01-08 13:22:00,
2013-01-08 06:32:00,26.0,-2.0,-100.00,NNW,330,7.0,13.0,29,0.00,,,0.00,0.000000,,2013-01-08 13:32:00,
2013-01-08 06:40:00,25.0,-1.0,-100.00,North,351,6.0,11.0,31,0.00,,,0.00,0.000000,,2013-01-08 13:40:00,
2013-01-08 07:02:00,25.0,-1.0,-100.00,North,351,6.0,11.0,31,0.00,,,0.00,0.000000,,2013-01-08 14:02:00,
2013-01-08 07:12:00,25.0,-1.0,-100.00,North,351,6.0,11.0,31,0.00,,,0.00,0.000000,,2013-01-08 14:12:00,
2013-01-08 07:23:00,25.0,-1.0,-100.00,North,351,6.0,11.0,31,0.00,,,0.00,0.000000,,2013-01-08 14:23:00,
2013-01-08 07:33:00,25.0,-1.0,-100.00,North,351,6.0,11.0,31,0.00,,,0.00,0.000000,,2013-01-08 14:33:00,
2013-01-08 07:40:00,25.0,1.0,-100.00,NNW,327,10.0,14.0,35,-99.99,,,0.00,3.000000,,2013-01-08 14:40:00,
2013-01-08 08:02:00,25.0,1.0,-100.00,NNW,327,10.0,14.0,35,-99.99,,,0.00,3.000000,,2013-01-08 15:02:00,
2013-01-08 08:12:00,25.0,1.0,-100.00,NNW,327,10.0,14.0,35,-99.99,,,0.00,3.000000,,2013-01-08 15:12:00,
2013-01-08 08:22:00,25.0,1.0,-100.00,NNW,327,10.0,14.0,35,-99.99,,,0.00,3.000000,,2013-01-08 15:22:00,
2013-01-08 08:33:00,25.0,1.0,-100.00,NNW,327,10.0,14.0,35,-99.99,,,0.00,3.000000,,2013-01-08 15:33:00,
2013-01-08 08:40:00,27.0,0.0,-100.00,NW,313,11.0,15.0,30,0.00,,,0.00,51.000000,,2013-01-08 15:40:00,
2013-01-08 09:03:00,27.0,0.0,-100.00,NW,313,11.0,15.0,30,0.00,,,0.00,51.000000,,2013-01-08 16:03:00,
2013-01-08 09:12:00,27.0,0.0,-100.00,NW,313,11.0,15.0,30,0.00,,,0.00,51.000000,,2013-01-08 16:12:00,
2013-01-08 09:22:00,27.0,0.0,-100.00,NW,313,11.0,15.0,30,0.00,,,0.00,51.000000,,2013-01-08 16:22:00,
2013-01-08 09:33:00,27.0,0.0,-100.00,NW,313,11.0,15.0,30,0.00,,,0.00,51.000000,,2013-01-08 16:33:00,
2013-01-08 09:40:00,29.0,2.0,-100.00,NW,316,12.0,17.0,31,0.00,,,0.00,207.000000,,2013-01-08 16:40:00,
2013-01-08 10:03:00,29.0,2.0,-100.00,NW,316,12.0,17.0,31,0.00,,,0.00,207.000000,,2013-01-08 17:03:00,
2013-01-08 10:12:00,29.0,2.0,-100.00,NW,316,12.0,17.0,31,0.00,,,0.00,207.000000,,2013-01-08 17:12:00,
2013-01-08 10:23:00,29.0,2.0,-100.00,NW,316,12.0,17.0,31,0.00,,,0.00,207.000000,,2013-01-08 17:23:00,
2013-01-08 10:33:00,29.0,2.0,-100.00,NW,316,12.0,17.0,31,0.00,,,0.00,207.000000,,2013-01-08 17:33:00,
2013-01-08 10:40:00,31.0,2.0,-100.00,NNW,331,10.0,17.0,28,0.00,,,0.00,392.000000,,2013-01-08 17:40:00,
2013-01-08 11:03:00,31.0,2.0,-100.00,NNW,331,10.0,17.0,28,0.00,,,0.00,392.000000,,2013-01-08 18:03:00,
2013-01-08 11:12:00,31.0,2.0,-100.00,NNW,331,10.0,17.0,28,0.00,,,0.00,392.000000,,2013-01-08 18:12:00,
2013-01-08 11:23:00,31.0,2.0,-100.00,NNW,331,10.0,17.0,28,0.00,,,0.00,392.000000,,2013-01-08 18:23:00,
2013-01-08 11:33:00,31.0,2.0,-100.00,NNW,331,10.0,17.0,28,0.00,,,0.00,392.000000,,2013-01-08 18:33:00,
2013-01-08 11:40:00,32.0,7.0,-100.00,NW,319,13.0,21.0,34,0.00,,,0.00,519.000000,,2013-01-08 18:40:00,
2013-01-08 12:03:00,32.0,7.0,-100.00,NW,319,13.0,21.0,34,0.00,,,0.00,519.000000,,2013-01-08 19:03:00,
2013-01-08 12:12:00,32.0,7.0,-100.00,NW,319,13.0,21.0,34,0.00,,,0.00,519.000000,,2013-01-08 19:12:00,
2013-01-08 12:22:00,32.0,7.0,-100.00,NW,319,13.0,21.0,34,0.00,,,0.00,519.000000,,2013-01-08 19:22:00,
2013-01-08 12:32:00,32.0,7.0,-100.00,NW,319,13.0,21.0,34,0.00,,,0.00,519.000000,,2013-01-08 19:32:00,
2013-01-08 12:40:00,35.0,10.0,-100.00,NW,326,12.0,22.0,35,0.00,,,0.00,672.000000,,2013-01-08 19:40:00,
2013-01-08 13:02:00,35.0,10.0,-100.00,NW,326,12.0,22.0,35,0.00,,,0.00,672.000000,,2013-01-08 20:02:00,
2013-01-08 13:12:00,35.0,10.0,-100.00,NW,326,12.0,22.0,35,0.00,,,0.00,672.000000,,2013-01-08 20:12:00,
2013-01-08 13:22:00,35.0,10.0,-100.00,NW,326,12.0,22.0,35,0.00,,,0.00,672.000000,,2013-01-08 20:22:00,
2013-01-08 13:32:00,35.0,10.0,-100.00,NW,326,12.0,22.0,35,0.00,,,0.00,672.000000,,2013-01-08 20:32:00,
2013-01-08 13:40:00,39.0,15.0,-100.00,NW,323,7.0,19.0,37,0.00,,,0.00,671.000000,,2013-01-08 20:40:00,
2013-01-08 14:02:00,39.0,15.0,-100.00,NW,323,7.0,19.0,37,0.00,,,0.00,671.000000,,2013-01-08 21:02:00,
2013-01-08 14:12:00,39.0,15.0,-100.00,NW,323,7.0,19.0,37,0.00,,,0.00,671.000000,,2013-01-08 21:12:00,
2013-01-08 14:22:00,39.0,15.0,-100.00,NW,323,7.0,19.0,37,0.00,,,0.00,671.000000,,2013-01-08 21:22:00,
2013-01-08 14:33:00,39.0,15.0,-100.00,NW,323,7.0,19.0,37,0.00,,,0.00,671.000000,,2013-01-08 21:33:00,
2013-01-08 14:40:00,36.0,16.0,-100.00,NW,305,12.0,22.0,43,0.00,,,0.00,598.000000,,2013-01-08 21:40:00,
2013-01-08 15:02:00,36.0,16.0,-100.00,NW,305,12.0,22.0,43,0.00,,,0.00,598.000000,,2013-01-08 22:02:00,
2013-01-08 15:12:00,36.0,16.0,-100.00,NW,305,12.0,22.0,43,0.00,,,0.00,598.000000,,2013-01-08 22:12:00,
2013-01-08 15:22:00,36.0,16.0,-100.00,NW,305,12.0,22.0,43,0.00,,,0.00,598.000000,,2013-01-08 22:22:00,
2013-01-08 15:32:00,36.0,16.0,-100.00,NW,305,12.0,22.0,43,0.00,,,0.00,598.000000,,2013-01-08 22:32:00,
2013-01-08 15:40:00,35.0,17.0,-100.00,NW,306,10.0,22.0,48,0.00,,,0.00,447.000000,,2013-01-08 22:40:00,
2013-01-08 16:02:00,35.0,17.0,-100.00,NW,306,10.0,22.0,48,0.00,,,0.00,447.000000,,2013-01-08 23:02:00,
2013-01-08 16:12:00,35.0,17.0,-100.00,NW,306,10.0,22.0,48,0.00,,,0.00,447.000000,,2013-01-08 23:12:00,
2013-01-08 16:22:00,35.0,17.0,-100.00,NW,306,10.0,22.0,48,0.00,,,0.00,447.000000,,2013-01-08 23:22:00,
2013-01-08 16:32:00,35.0,17.0,-100.00,NW,306,10.0,22.0,48,0.00,,,0.00,447.000000,,2013-01-08 23:32:00,
2013-01-08 16:40:00,30.0,16.0,-100.00,WSW,238,4.0,18.0,55,0.00,,,0.00,206.000000,,2013-01-08 23:40:00,
2013-01-08 17:02:00,30.0,16.0,-100.00,WSW,238,4.0,18.0,55,0.00,,,0.00,206.000000,,2013-01-09 00:02:00,
2013-01-08 17:12:00,30.0,16.0,-100.00,WSW,238,4.0,18.0,55,0.00,,,0.00,206.000000,,2013-01-09 00:12:00,
2013-01-08 17:22:00,30.0,16.0,-100.00,WSW,238,4.0,18.0,55,0.00,,,0.00,206.000000,,2013-01-09 00:22:00,
2013-01-08 17:32:00,30.0,16.0,-100.00,WSW,238,4.0,18.0,55,0.00,,,0.00,206.000000,,2013-01-09 00:32:00,
2013-01-08 17:40:00,27.0,14.0,-100.00,NNW,336,8.0,12.0,57,0.00,,,0.00,12.000000,,2013-01-09 00:40:00,
2013-01-08 18:02:00,27.0,14.0,-100.00,NNW,336,8.0,12.0,57,0.00,,,0.00,12.000000,,2013-01-09 01:02:00,
2013-01-08 18:12:00,27.0,14.0,-100.00,NNW,336,8.0,12.0,57,0.00,,,0.00,12.000000,,2013-01-09 01:12:00,
2013-01-08 18:22:00,27.0,14.0,-100.00,NNW,336,8.0,12.0,57,0.00,,,0.00,12.000000,,2013-01-09 01:22:00,
2013-01-08 18:32:00,27.0,14.0,-100.00,NNW,336,8.0,12.0,57,0.00,,,0.00,12.000000,,2013-01-09 01:32:00,
2013-01-08 18:40:00,27.0,13.0,-100.00,NNW,339,7.0,12.0,55,0.00,,,0.00,0.000000,,2013-01-09 01:40:00,
2013-01-08 19:02:00,27.0,13.0,-100.00,NNW,339,7.0,12.0,55,0.00,,,0.00,0.000000,,2013-01-09 02:02:00,
2013-01-08 19:12:00,27.0,13.0,-100.00,NNW,339,7.0,12.0,55,0.00,,,0.00,0.000000,,2013-01-09 02:12:00,
2013-01-08 19:22:00,27.0,13.0,-100.00,NNW,339,7.0,12.0,55,0.00,,,0.00,0.000000,,2013-01-09 02:22:00,
2013-01-08 19:32:00,27.0,13.0,-100.00,NNW,339,7.0,12.0,55,0.00,,,0.00,0.000000,,2013-01-09 02:32:00,
2013-01-08 19:40:00,26.0,12.0,-100.00,NNW,342,6.0,13.0,55,0.00,,,0.00,0.000000,,2013-01-09 02:40:00,
2013-01-08 20:03:00,26.0,12.0,-100.00,NNW,342,6.0,13.0,55,0.00,,,0.00,0.000000,,2013-01-09 03:03:00,
2013-01-08 20:12:00,26.0,12.0,-100.00,NNW,342,6.0,13.0,55,0.00,,,0.00,0.000000,,2013-01-09 03:12:00,
2013-01-08 20:22:00,26.0,12.0,-100.00,NNW,342,6.0,13.0,55,0.00,,,0.00,0.000000,,2013-01-09 03:22:00,
2013-01-08 20:32:00,26.0,12.0,-100.00,NNW,342,6.0,13.0,55,0.00,,,0.00,0.000000,,2013-01-09 03:32:00,
2013-01-08 20:40:00,25.0,12.0,-100.00,North,7,3.0,11.0,57,0.00,,,0.00,0.000000,,2013-01-09 03:40:00,
2013-01-08 21:02:00,25.0,12.0,-100.00,North,7,3.0,11.0,57,0.00,,,0.00,0.000000,,2013-01-09 04:02:00,
2013-01-08 21:12:00,25.0,12.0,-100.00,North,7,3.0,11.0,57,0.00,,,0.00,0.000000,,2013-01-09 04:12:00,
2013-01-08 21:22:00,25.0,12.0,-100.00,North,7,3.0,11.0,57,0.00,,,0.00,0.000000,,2013-01-09 04:22:00,
2013-01-08 21:32:00,25.0,12.0,-100.00,North,7,3.0,11.0,57,0.00,,,0.00,0.000000,,2013-01-09 04:32:00,
2013-01-08 21:40:00,26.0,12.0,-100.00,NE,42,3.0,6.0,55,0.00,,,0.00,0.000000,,2013-01-09 04:40:00,
2013-01-08 22:03:00,26.0,12.0,-100.00,NE,42,3.0,6.0,55,0.00,,,0.00,0.000000,,2013-01-09 05:03:00,
2013-01-08 22:12:00,26.0,12.0,-100.00,NE,42,3.0,6.0,55,0.00,,,0.00,0.000000,,2013-01-09 05:12:00,
2013-01-08 22:22:00,26.0,12.0,-100.00,NE,42,3.0,6.0,55,0.00,,,0.00,0.000000,,2013-01-09 05:22:00,
2013-01-08 22:33:00,26.0,12.0,-100.00,NE,42,3.0,6.0,55,0.00,,,0.00,0.000000,,2013-01-09 05:33:00,
2013-01-08 22:40:00,26.0,12.0,-100.00,SSE,150,3.0,6.0,54,0.00,,,0.00,0.000000,,2013-01-09 05:40:00,
2013-01-08 23:02:00,26.0,12.0,-100.00,SSE,150,3.0,6.0,54,0.00,,,0.00,0.000000,,2013-01-09 06:02:00,
2013-01-08 23:12:00,26.0,12.0,-100.00,SSE,150,3.0,6.0,54,0.00,,,0.00,0.000000,,2013-01-09 06:12:00,
2013-01-08 23:22:00,26.0,12.0,-100.00,SSE,150,3.0,6.0,54,0.00,,,0.00,0.000000,,2013-01-09 06:22:00,
2013-01-08 23:32:00,26.0,12.0,-100.00,SSE,150,3.0,6.0,54,0.00,,,0.00,0.000000,,2013-01-09 06:32:00,